[Date Prev][Date Next][Thread Prev][Thread Next] - [Date Index][Thread Index][Author Index]

2 Line ISS Keps 11-21



ISS
1 25544U 98067A   01325.33595163  .00058004  00000-0  65669-3 0  7435
2 25544  51.6425  18.3182 0010653   0.8188  95.8705 15.61781035171604


----
Via the sarex mailing list at AMSAT.ORG courtesy of AMSAT-NA.
To unsubscribe, send "unsubscribe sarex" to Majordomo@amsat.org



AMSAT Top AMSAT Home